Mt. Clemens, MI

7:16 PM EDT on October 17, 2019 (GMT -0400)
Selfridge Angb

Weather History for KMTC - September, 2019

Change the Weather History Date:

Thursday, September 19, 2019

  Actual Average Record
Temperature  
Mean Temperature 66 °F -  
Max Temperature 73 °F 71 °F 94 °F (1955)
Min Temperature 58 °F 53 °F 38 °F (2014)
Growing Degree Days 16 (Base 50)    
Moisture  
Dew Point 62 °F    
Average Humidity 86    
Maximum Humidity 100    
Minimum Humidity 68    
Precipitation  
Precipitation 0.00 in - - ()
Sea Level Pressure  
Sea Level Pressure 30.17 in    
Wind  
Wind Speed 6 mph (ESE)    
Max Wind Speed 13 mph    
Max Gust Speed -    
Visibility 10 miles    
Events      
Averages and records for this station are not official NWS values.
T = Trace of Precipitation, MM = Missing Value Source: NWS Daily Summary

Daily Weather History Graph

Daily Weather History Graph

Search for Another Location

Airport or City:

Astronomy

Sep. 19, 2019 Rise Set
Actual Time 7:15 AM EDT 7:34 PM EDT
Civil Twilight 6:46 AM EDT 8:02 PM EDT
Nautical Twilight 6:13 AM EDT 8:35 PM EDT
Astronomical Twilight 5:39 AM EDT 9:09 PM EDT
Moon 10:36 PM EDT (9/19) 12:23 PM EDT (9/19)
Length of Visible Light 13h 15m
Length of Day
12h 19m
Waning Gibbous, 74% of the Moon is Illuminated
Sep 19
Waning Gibbous
Sep 21
Last Quarter
Sep 28
New
Oct 5
First Quarter
Oct 13
Full

Hourly Weather History & Observations

Time (EDT) Temp. Dew Point Humidity Pressure Visibility Wind Dir Wind Speed Gust Speed Precip Events Conditions
12:56 AM 63.0 °F 63.0 °F 100% 30.19 in 10.0 mi East 5.8 mph - N/A   Clear
1:56 AM 63.9 °F 63.5 °F 99% 30.19 in 10.0 mi ESE 6.9 mph - N/A   Clear
2:56 AM 62.1 °F 62.1 °F 100% 30.19 in 10.0 mi Calm Calm - N/A   Clear
3:56 AM 61.5 °F 61.5 °F 100% 30.19 in 10.0 mi East 4.6 mph - N/A   Clear
4:56 AM 59.7 °F 59.7 °F 100% 30.18 in 10.0 mi SE 3.5 mph - N/A   Clear
5:56 AM 58.1 °F 58.1 °F 100% 30.18 in 10.0 mi SE 3.5 mph - N/A   Clear
6:56 AM 59.2 °F 57.4 °F 94% 30.18 in 10.0 mi SE 4.6 mph - N/A   Clear
7:56 AM 61.3 °F 57.4 °F 87% 30.19 in 10.0 mi ESE 4.6 mph - N/A   Partly Cloudy
8:56 AM 66.0 °F 63.7 °F 92% 30.20 in 10.0 mi East 6.9 mph - N/A   Partly Cloudy
9:56 AM 68.9 °F 61.0 °F 76% 30.20 in 10.0 mi SE 12.7 mph - N/A   Scattered Clouds
10:56 AM 70.0 °F 60.1 °F 71% 30.19 in 10.0 mi SE 12.7 mph - N/A   Mostly Cloudy
11:56 AM 71.2 °F 61.7 °F 72% 30.19 in 10.0 mi SE 10.4 mph - N/A   Scattered Clouds
12:56 PM 72.0 °F 60.8 °F 68% 30.18 in 10.0 mi SE 5.8 mph - N/A   Scattered Clouds
1:56 PM 72.7 °F 61.9 °F 69% 30.18 in 10.0 mi ESE 8.1 mph - N/A   Mostly Cloudy
2:56 PM 73.4 °F 62.2 °F 68% 30.16 in 10.0 mi SE 10.4 mph - N/A   Mostly Cloudy
3:56 PM 73.6 °F 62.4 °F 68% 30.15 in 10.0 mi ESE 9.2 mph - N/A   Scattered Clouds
5:56 PM 72.3 °F 62.4 °F 71% 30.14 in 10.0 mi SE 11.5 mph - N/A   Partly Cloudy
6:56 PM 70.5 °F 62.2 °F 75% 30.13 in 10.0 mi ESE 8.1 mph - N/A   Scattered Clouds
7:56 PM 67.1 °F 61.0 °F 81% 30.13 in 10.0 mi SE 3.5 mph - N/A   Partly Cloudy
8:56 PM 65.1 °F 62.8 °F 92% 30.14 in 10.0 mi Calm Calm - N/A   Partly Cloudy
9:56 PM 65.3 °F 64.0 °F 96% 30.14 in 10.0 mi East 5.8 mph - N/A   Partly Cloudy
10:56 PM 65.1 °F 63.7 °F 95% 30.14 in 10.0 mi NE 3.5 mph - N/A   Partly Cloudy
11:56 PM 61.9 °F 61.9 °F 100% 30.13 in 10.0 mi Calm Calm - N/A   Clear